Regional Weather Roundup
Issued by NWS Albany, NY

Home | Current Version | Previous Version | Text Only | Print | Product List | Glossary On
Versions: 1 2 3 4 5 6 7 8 9 10 11 12 13 14 15 16 17 18 19 20 21 22 23 24 25 26 27 28
000
ASUS41 KALY 251310
RWRALY

NEW YORK STATE HOURLY WEATHER ROUNDUP
NATIONAL WEATHER SERVICE ALBANY NY
900 AM EDT MON SEP 25 2017

NOTE: "FAIR" INDICATES FEW OR NO CLOUDS BELOW 12,000 FEET WITH NO
SIGNIFICANT WEATHER AND/OR NO OBSTRUCTIONS TO VISIBILITY.

NYZ032-033-038>043-046>054-057>066-NYZ062>081-082-084-251400-
EAST


CITY           SKY/WX    TMP DP  RH WIND       PRES   REMARKS
ALBANY         SUNNY     72  66  81 N5        30.11R
GLENS FALLS    SUNNY     70  67  90 CALM      30.10F
POUGHKEEPSIE   SUNNY     67  66  97 CALM      30.09R
NEWBURGH       SUNNY     72  70  94 CALM      30.11S
MONTGOMERY     SUNNY     72  68  87 N5        30.10R
WHITE PLAINS   SUNNY     74  67  78 CALM      30.09R
ISLIP          MOSUNNY   74  62  66 S3        30.07S
NEW YORK CITY  SUNNY     76  66  71 NE6       30.07R
CENTRAL PARK   SUNNY     77  66  68 CALM      30.10R
$$

NYZ005>009-017-018-044>046-055-056-251400-
CENTRAL


CITY           SKY/WX    TMP DP  RH WIND       PRES   REMARKS
FULTON         CLOUDY    68  67  96 CALM      30.12R FOG
SYRACUSE       MOSUNNY   68  65  90 CALM      30.11R
ROME           SUNNY     67  65  93 SE5       30.13R
ELMIRA         FOG       64  64 100 SW5       30.14S VSB 1/4
BINGHAMTON     SUNNY     68  65  90 NE5       30.15S
MONTICELLO     SUNNY     70  64  81 CALM      30.16R
$$

NYZ026>034-041>043-087-251400-
NORTH


CITY           SKY/WX    TMP DP  RH WIND       PRES   REMARKS
WATERTOWN      SUNNY     71  67  87 CALM      30.11R FOG
FORT DRUM      NOT AVBL
OGDENSBURG     FAIR      71  69  95 SW6       30.10S
MASSENA        SUNNY     72  69  90 S3        30.10S
SARANAC LAKE   MOSUNNY   62  62 100 CALM      30.16S
PLATTSBURGH    SUNNY     72  66  81 SE3       30.10R
$$

NYZ001>004-010>016-019>021-085-251400-
WEST


CITY           SKY/WX    TMP DP  RH WIND       PRES   REMARKS
NIAGARA FALLS  MOSUNNY   74  66  76 CALM      30.11S
BUFFALO        PTSUNNY   70  65  84 S3        30.12R
DUNKIRK        MOSUNNY   71  68  90 CALM      30.11S
JAMESTOWN      SUNNY     69  65  86 SE3       30.17S
WELLSVILLE     SUNNY     68  66  93 CALM      30.20S FOG
ROCHESTER      PTSUNNY   70  67  90 SW6       30.12R
PENN YAN       SUNNY     69  65  86 SW5       30.14S
$$

             KEY
       WCI = WIND CHILL INDEX
       VSB = VISIBILITY
       HX  = HEAT INDEX
$$




USA.gov is the U.S. government's official web portal to all federal, state and local government web resources and services.